Tracking 30070 objects as of 15-Jan-2025
HD Live streaming from Space Station
objects crossing your sky now

CZ-3B DEB

Track CZ-3B DEB now!


NORAD ID: 40852
Int'l Code: 2011-077AH
Perigee: 801.2 km
Apogee: 41,395.8 km
Inclination: 25.7 °
Period: 755.2 minutes
Semi major axis: 27469 km
RCS: Unknown
Launch date: December 19, 2011
Source: People's Republic of China (PRC)
Launch site: Xichang Space Center, China (XSC)

Note: This is SATELLITE DEBRIS
Your satellite tracking list
Your tracking list is empty




NASA's NSSDC Master Catalog

Two Line Element Set (TLE):
1 40852U 11077AH  25012.22231028 -.00000036  00000-0  00000-0 0  9995
2 40852  25.7363 174.0300 7389048  80.4157 348.8640  1.90689566 76417
Source of the keplerian elements: AFSPC